User: anonymous   Login
Location: Holyhead Bay
(53.3667°N, 4.6667°W)
Time: 01:25:26
(UTC+00:00)
Language:

Cosmos 1408 Rocket - Orbit

View from above orbital plane
View from above orbital plane
View from above satellite
View from above satellite

Ground track
Ground track

The orbit data is extracted from the following two-line orbital elements,

1 13553U 82092B   21060.45413708  .00000070  00000-0  54993-5 0  9991
2 13553  82.5672  53.1187 0019855 251.1933 262.6184 14.84262668 56687
Epoch (UTC): 01 March 2021 10:53:57
Eccentricity: 0.0019855
inclination: 82.5672°
perigee height: 602 km
apogee height: 630 km
right ascension of ascending node: 53.1187°
argument of perigee: 251.1933°
revolutions per day: 14.84262668
mean anomaly at epoch: 262.6184°
orbit number at epoch: 5668

The dashed part of the orbit path shows where the satellite is in the earth's shadow,  

DLR